Starlink 32108

operational
NORAD ID: 59682 Int'l Des: 2024-086 Owner: SPXS Country: US Constellation: starlink
LEOCIRCULAR

关于 Starlink 32108

正在加载描述...

实时位置

正在加载3D地球...

即将过境

高度历史

Altitude vs Time

uPlot chart will show altitude changes over time

两行轨道根数

1 59682U 24086A 26034.31996464 .00000342 00000-0 21955-4 0 9992
2 59682 42.9998 257.6038 0000972 279.9919 80.0823 15.27579884 98800
Epoch: Feb 3, 2026 • Age: 25 hours

当前状态

高度 491.9 km
速度 7.62 km/s
星下点 -33.24°S, 141.86°W
发射日期 May 8, 2024
运行时间 1.7 years
类型 internet

技术详情

分类 Payload
质量 730.00 kg
干质量 700.00 kg
总质量 730.00 kg
长度 0.30 m
直径 4.10 m
跨度 29.00 m
形状 Box + pan
制造商 SPXS
平台类型 Starlink V2M
阶段状态 In Orbit
所有者/国家 SPXS/US

大型星座

Loading constellations...